�N����,����,�~����,�C��,���x,�C��,����,���ϕ���,�ő�u�ԕ���,�ő厞����,���˗�,�I�_���x,�n�����x,�ő啗���N��,DTYPE
"18/10/16","00:10",0.0,16.4,89.6,1012.1,323.9,1.6,2.8,336.4,0.00,14.7,19.4,"00:07:44",1
"18/10/16","00:20",0.0,16.4,89.3,1011.9,334.4,1.3,2.7,340.8,0.00,14.7,19.1,"00:13:20",1
"18/10/16","00:30",0.0,16.4,89.2,1011.9,336.1,1.1,2.2,343.0,0.00,14.7,19.2,"00:25:20",1
"18/10/16","00:40",0.0,16.3,89.0,1011.9,327.6,1.3,2.0,320.6,0.00,14.5,19.2,"00:32:56",1
"18/10/16","00:50",0.0,16.1,89.3,1011.6,336.8,1.5,2.8,338.9,0.00,14.4,19.2,"00:48:40",1
"18/10/16","01:00",0.0,15.9,89.6,1011.6,330.5,2.0,3.6,339.7,0.00,14.2,19.2,"00:58:48",1
"18/10/16","01:10",0.0,15.9,89.2,1011.6,316.9,2.0,3.4,340.5,0.00,14.2,19.2,"01:06:00",1
"18/10/16","01:20",0.0,15.6,89.5,1011.9,306.7,1.3,2.6,325.5,0.00,13.9,19.0,"01:14:16",1
"18/10/16","01:30",0.0,15.5,89.4,1012.1,323.6,1.3,2.4,340.8,0.00,13.8,19.0,"01:21:12",1
"18/10/16","01:40",0.0,15.2,90.2,1011.9,319.6,1.0,1.2,331.0,0.00,13.6,19.2,"01:35:04",1
"18/10/16","01:50",0.0,15.0,90.7,1011.9,324.7,1.0,1.7,325.7,0.00,13.5,19.0,"01:49:44",1
"18/10/16","02:00",0.0,15.0,91.2,1011.9,311.7,1.2,2.5,323.6,0.00,13.6,19.0,"01:57:04",1
"18/10/16","02:10",0.0,14.9,91.7,1011.6,302.0,1.3,2.5,317.8,0.00,13.6,18.8,"02:01:44",1
"18/10/16","02:20",0.0,14.9,92.2,1011.9,313.6,1.0,1.7,323.1,0.00,13.7,18.7,"02:19:44",1
"18/10/16","02:30",0.0,15.1,92.0,1011.9,318.1,1.8,2.8,320.9,0.00,13.9,18.6,"02:21:36",1
"18/10/16","02:40",0.0,14.9,92.2,1011.6,299.2,1.2,2.2,308.9,0.00,13.7,18.7,"02:33:52",1
"18/10/16","02:50",0.0,15.0,92.8,1011.6,316.7,1.8,3.3,324.3,0.00,13.9,18.8,"02:48:48",1
"18/10/16","03:00",0.0,15.0,92.4,1011.4,327.8,2.1,2.9,328.5,0.00,13.8,18.7,"02:55:44",1
"18/10/16","03:10",0.0,14.9,92.5,1011.2,331.6,1.7,2.7,344.6,0.00,13.7,18.7,"03:02:00",1
"18/10/16","03:20",0.0,15.0,92.6,1011.4,323.3,2.2,3.5,330.7,0.00,13.9,18.7,"03:12:24",1
"18/10/16","03:30",0.0,14.9,92.4,1011.4,325.4,1.8,3.2,321.2,0.00,13.7,18.5,"03:21:04",1
"18/10/16","03:40",0.0,14.7,92.3,1011.4,323.0,1.8,2.9,321.4,0.00,13.5,18.5,"03:34:24",1
"18/10/16","03:50",0.0,14.7,92.8,1011.4,323.6,1.7,3.5,325.7,0.00,13.6,18.6,"03:48:32",1
"18/10/16","04:00",0.0,14.7,92.7,1011.6,324.9,2.0,4.0,326.7,0.00,13.6,18.7,"03:52:40",1
"18/10/16","04:10",0.0,14.6,92.8,1011.6,325.8,1.8,2.8,322.3,0.00,13.5,18.3,"04:09:36",1
"18/10/16","04:20",0.0,14.4,92.8,1011.6,333.0,1.8,3.7,337.0,0.00,13.3,18.6,"04:10:02",1
"18/10/16","04:30",0.0,14.2,93.3,1011.6,332.8,2.1,3.6,340.6,0.00,13.2,18.3,"04:20:16",1
"18/10/16","04:40",0.0,14.2,93.5,1011.6,331.3,2.3,3.2,332.3,0.00,13.2,18.5,"04:39:04",1
"18/10/16","04:50",0.0,14.3,93.4,1011.9,329.5,2.2,3.1,309.3,0.00,13.3,18.4,"04:45:12",1
"18/10/16","05:00",0.0,14.3,93.5,1011.2,328.1,1.8,3.3,329.6,0.00,13.3,18.4,"04:51:12",1
"18/10/16","05:10",0.0,14.1,93.5,1011.6,299.7,1.2,2.4,317.1,0.00,13.1,18.4,"05:08:56",1
"18/10/16","05:20",0.0,13.9,93.6,1011.9,324.7,1.6,2.4,327.8,0.00,12.9,18.4,"05:10:08",1
"18/10/16","05:30",0.0,13.8,93.8,1011.9,322.8,1.6,2.1,319.8,0.00,12.9,18.2,"05:20:16",1
"18/10/16","05:40",0.0,13.8,94.1,1011.2,328.2,1.7,2.5,335.1,0.00,12.9,18.4,"05:36:16",1
"18/10/16","05:50",0.0,13.8,94.4,1011.6,317.1,1.7,2.5,325.5,0.00,13.0,18.2,"05:45:52",1
"18/10/16","06:00",0.0,13.8,94.4,1011.4,318.8,1.6,2.7,333.6,0.00,13.0,18.4,"05:58:08",1
"18/10/16","06:10",0.0,13.7,94.5,1011.2,288.0,0.8,1.7,331.2,0.00,12.9,18.1,"06:00:08",1
"18/10/16","06:20",0.0,13.6,94.7,1010.9,280.6,1.0,1.4,319.6,0.00,12.8,18.2,"06:19:44",1
"18/10/16","06:30",0.0,13.7,95.1,1011.2,298.4,1.2,1.9,312.9,0.00,13.0,18.2,"06:20:02",1
"18/10/16","06:40",0.0,13.8,95.0,1011.2,309.7,1.3,2.0,307.5,0.00,13.1,18.0,"06:30:16",1
"18/10/16","06:50",0.0,13.9,95.2,1011.6,291.3,1.2,2.4,322.0,0.00,13.2,18.2,"06:49:28",1
"18/10/16","07:00",0.0,14.0,95.0,1011.4,323.7,1.5,2.7,327.1,0.00,13.3,18.2,"06:53:12",1
"18/10/16","07:10",0.0,14.2,95.2,1011.4,324.0,1.3,2.0,319.4,0.02,13.5,18.3,"07:08:16",1
"18/10/16","07:20",0.0,14.4,95.2,1011.2,304.1,1.2,1.8,303.4,0.02,13.7,18.1,"07:14:56",1
"18/10/16","07:30",0.0,14.5,94.9,1011.4,308.8,1.6,3.6,311.9,0.03,13.7,18.1,"07:27:04",1
"18/10/16","07:40",0.0,14.9,94.8,1011.4,310.4,1.3,1.9,325.5,0.05,14.1,18.2,"07:31:04",1
"18/10/16","07:50",0.0,15.0,94.2,1011.4,304.9,1.3,2.2,322.2,0.05,14.1,18.2,"07:46:40",1
"18/10/16","08:00",0.0,15.2,94.0,1011.4,310.0,1.3,2.4,332.4,0.05,14.3,18.2,"07:57:44",1
"18/10/16","08:10",0.0,15.5,93.1,1011.4,324.6,1.2,2.1,338.0,0.06,14.4,18.3,"08:04:40",1
"18/10/16","08:20",0.0,15.5,92.2,1011.6,326.7,1.2,2.1,327.7,0.08,14.3,18.4,"08:10:32",1
"18/10/16","08:30",0.0,15.9,91.9,1011.4,329.6,0.8,1.6,318.8,0.06,14.6,18.4,"08:22:48",1
"18/10/16","08:40",0.0,16.0,91.2,1011.2,335.3,1.0,1.9,328.7,0.07,14.6,18.3,"08:37:28",1
"18/10/16","08:50",0.0,16.2,90.5,1011.4,317.2,0.8,1.4,335.1,0.10,14.7,18.6,"08:42:00",1
"18/10/16","09:00",0.0,16.6,90.0,1010.9,298.4,0.8,1.7,330.0,0.12,15.0,18.4,"08:59:52",1
"18/10/16","09:10",0.0,16.7,88.0,1011.2,315.1,1.2,2.2,345.1,0.13,14.7,18.7,"09:09:12",1
"18/10/16","09:20",0.0,17.1,87.3,1010.7,326.1,1.5,2.2,318.3,0.13,15.0,18.6,"09:15:12",1
"18/10/16","09:30",0.0,17.4,86.4,1011.2,310.8,1.1,2.8,335.6,0.13,15.1,18.7,"09:20:24",1
"18/10/16","09:40",0.0,17.5,85.4,1011.2,287.2,1.1,2.1,315.8,0.15,15.1,18.9,"09:33:44",1
"18/10/16","09:50",0.0,17.7,85.1,1011.2,300.3,1.3,2.7,320.7,0.14,15.2,19.0,"09:44:08",1
"18/10/16","10:00",0.0,17.7,84.3,1010.7,316.0,1.7,3.2,331.1,0.16,15.1,19.0,"09:55:52",1
"18/10/16","10:10",0.0,18.1,83.8,1010.4,315.2,1.5,2.7,339.0,0.15,15.4,18.9,"10:03:44",1
"18/10/16","10:20",0.0,18.2,82.9,1010.2,310.5,1.5,2.8,332.6,0.16,15.3,19.2,"10:16:00",1
"18/10/16","10:30",0.0,18.2,82.0,1010.2,295.7,1.3,2.5,343.5,0.18,15.1,19.1,"10:23:52",1
"18/10/16","10:40",0.0,18.5,81.1,1010.2,239.4,0.6,2.0,242.2,0.19,15.2,19.3,"10:32:56",1
"18/10/16","10:50",0.0,19.2,79.3,1009.7,340.5,0.6,2.2,346.1,0.25,15.6,19.1,"10:45:20",1
"18/10/16","11:00",0.0,19.5,79.1,1009.7,251.7,0.8,2.0,235.4,0.39,15.8,19.4,"10:59:28",1
"18/10/16","11:10",0.0,19.8,76.7,1009.5,323.8,1.1,2.2,355.5,0.29,15.6,19.4,"11:06:16",1
"18/10/16","11:20",0.0,19.5,77.3,1009.3,211.6,0.5,1.2,314.8,0.19,15.5,19.5,"11:10:24",1
"18/10/16","11:30",0.0,20.1,74.8,1009.0,262.0,0.7,1.6,217.3,0.21,15.5,19.5,"11:22:48",1
"18/10/16","11:40",0.0,20.1,74.8,1009.0,268.7,0.6,1.8,236.3,0.24,15.5,19.7,"11:37:12",1
"18/10/16","11:50",0.0,21.0,74.1,1008.8,335.8,0.8,2.7,344.0,0.33,16.3,19.9,"11:48:32",1
"18/10/16","12:00",0.0,20.3,72.4,1008.3,263.5,1.1,2.4,337.9,0.33,15.2,20.0,"11:52:24",1
"18/10/16","12:10",0.0,20.9,70.9,1008.1,202.2,0.6,1.4,190.7,0.35,15.5,20.1,"12:02:40",1
"18/10/16","12:20",0.0,20.9,69.2,1008.1,287.4,0.7,1.7,351.0,0.30,15.1,20.2,"12:16:56",1
"18/10/16","12:30",0.0,21.5,69.7,1007.1,216.2,0.6,2.2,227.6,0.41,15.8,20.3,"12:26:56",1
"18/10/16","12:40",0.0,22.1,65.3,1007.6,175.7,1.2,3.4,161.4,0.44,15.3,20.6,"12:34:56",1
"18/10/16","12:50",0.0,21.6,65.8,1007.4,356.5,0.7,2.8,222.3,0.28,15.0,20.4,"12:49:44",1
"18/10/16","13:00",0.0,21.6,68.4,1007.1,219.8,0.7,2.0,216.3,0.23,15.6,20.6,"12:50:08",1
"18/10/16","13:10",0.0,21.4,65.0,1007.1,244.7,1.2,2.5,229.2,0.25,14.6,20.6,"13:04:00",1
"18/10/16","13:20",0.0,21.6,62.0,1006.9,334.2,0.6,1.9,358.0,0.23,14.1,20.7,"13:14:40",1
"18/10/16","13:30",0.0,21.4,62.9,1006.7,321.6,0.8,1.9,323.6,0.21,14.1,20.8,"13:29:36",1
"18/10/16","13:40",0.0,21.6,63.6,1006.4,330.5,0.8,2.2,341.4,0.23,14.4,20.8,"13:32:16",1
"18/10/16","13:50",0.0,22.5,61.4,1006.0,272.5,1.0,2.1,343.6,0.39,14.8,20.9,"13:48:56",1
"18/10/16","14:00",0.0,21.7,59.3,1005.7,7.9,0.7,1.9,353.2,0.19,13.5,21.0,"13:53:12",1
"18/10/16","14:10",0.0,22.4,59.9,1005.2,144.1,0.6,1.4,120.0,0.33,14.3,21.0,"14:02:16",1
"18/10/16","14:20",0.0,22.0,61.3,1005.5,198.1,0.7,1.8,115.7,0.21,14.3,21.0,"14:10:32",1
"18/10/16","14:30",0.0,21.9,59.9,1005.5,243.9,1.1,3.1,148.2,0.19,13.8,21.0,"14:23:28",1
"18/10/16","14:40",0.0,22.3,58.3,1005.5,282.5,1.0,1.9,312.8,0.26,13.8,21.1,"14:37:04",1
"18/10/16","14:50",0.0,22.4,57.6,1005.5,239.2,1.5,3.1,228.1,0.27,13.7,21.2,"14:49:36",1
"18/10/16","15:00",0.0,21.5,60.2,1005.7,246.8,1.3,3.2,235.3,0.13,13.5,21.1,"14:55:28",1
"18/10/16","15:10",0.0,21.8,60.4,1005.7,324.3,1.2,2.7,342.3,0.13,13.8,21.0,"15:03:04",1
"18/10/16","15:20",0.0,21.4,59.5,1005.2,334.2,1.7,3.3,337.6,0.11,13.2,21.1,"15:12:16",1
"18/10/16","15:30",0.0,21.5,61.3,1005.5,325.5,1.5,3.2,330.0,0.10,13.8,21.1,"15:22:32",1
"18/10/16","15:40",0.0,22.6,55.2,1005.2,331.7,0.7,1.6,333.5,0.20,13.2,21.0,"15:31:52",1
"18/10/16","15:50",0.0,22.6,55.5,1005.0,271.1,0.8,2.2,338.1,0.20,13.3,21.2,"15:40:48",1
"18/10/16","16:00",0.0,22.6,54.0,1005.0,356.5,1.0,2.0,40.0,0.15,12.9,21.1,"15:51:36",1
"18/10/16","16:10",0.0,22.9,56.7,1005.0,318.4,1.5,2.6,335.1,0.11,13.9,21.0,"16:06:56",1
"18/10/16","16:20",0.0,21.9,59.0,1004.8,335.5,1.8,4.4,341.3,0.06,13.6,21.2,"16:11:36",1
"18/10/16","16:30",0.0,21.5,61.2,1005.0,331.6,1.3,2.8,339.2,0.03,13.8,21.0,"16:24:08",1
"18/10/16","16:40",0.0,21.6,62.9,1005.0,338.1,0.8,1.7,337.9,0.05,14.3,21.0,"16:31:52",1
"18/10/16","16:50",0.0,21.3,64.1,1005.2,86.1,0.5,1.3,62.1,0.02,14.3,21.0,"16:45:52",1
"18/10/16","17:00",0.0,20.9,64.4,1005.2,82.7,0.6,2.0,87.7,0.00,14.0,21.0,"16:56:16",1
"18/10/16","17:10",0.0,20.8,65.6,1005.0,45.7,0.5,1.8,85.4,0.00,14.2,20.8,"17:03:20",1
"18/10/16","17:20",0.0,20.6,66.8,1005.0,338.9,0.7,2.0,350.8,0.01,14.3,20.9,"17:10:02",1
"18/10/16","17:30",0.0,20.4,68.4,1005.0,326.8,1.2,1.8,333.8,0.00,14.4,20.8,"17:21:28",1
"18/10/16","17:40",0.0,19.7,69.9,1005.0,320.8,1.5,2.4,331.1,0.00,14.1,20.8,"17:37:28",1
"18/10/16","17:50",0.0,19.0,72.8,1005.2,323.9,1.3,2.5,340.9,0.00,14.1,20.7,"17:40:48",1
"18/10/16","18:00",0.0,18.5,75.5,1005.5,332.7,1.3,2.4,334.1,0.00,14.1,20.7,"17:54:24",1
"18/10/16","18:10",0.0,18.2,77.3,1005.2,324.9,1.2,2.0,328.6,0.00,14.2,20.4,"18:09:20",1
"18/10/16","18:20",0.0,18.2,78.3,1005.2,328.2,1.3,2.6,342.6,0.00,14.4,20.3,"18:19:44",1
"18/10/16","18:30",0.0,18.0,78.0,1006.0,324.3,1.7,3.6,333.8,0.00,14.1,20.2,"18:20:08",1
"18/10/16","18:40",0.0,18.1,77.2,1005.7,319.1,2.0,3.2,336.9,0.00,14.1,20.2,"18:32:40",1
"18/10/16","18:50",0.0,18.1,77.2,1005.7,311.5,1.6,2.7,315.6,0.00,14.1,20.2,"18:41:04",1
"18/10/16","19:00",0.0,18.1,76.9,1006.0,310.7,1.6,2.6,336.8,0.00,14.0,20.4,"18:57:20",1
"18/10/16","19:10",0.0,18.1,77.3,1006.0,316.7,2.0,3.1,323.6,0.00,14.1,20.0,"19:07:36",1
"18/10/16","19:20",0.0,18.0,77.8,1006.4,302.3,1.3,2.9,336.2,0.00,14.1,20.2,"19:16:40",1
"18/10/16","19:30",0.0,18.2,75.8,1006.4,326.8,2.5,3.9,323.1,0.00,13.9,20.0,"19:26:16",1
"18/10/16","19:40",0.0,18.3,74.1,1006.0,330.5,2.6,4.1,339.7,0.00,13.7,20.1,"19:38:32",1
"18/10/16","19:50",0.0,18.0,73.9,1006.4,331.0,2.3,5.5,340.6,0.00,13.3,19.9,"19:41:44",1
"18/10/16","20:00",0.0,17.9,74.1,1006.4,331.7,2.0,4.7,321.0,0.00,13.3,20.0,"19:50:48",1
"18/10/16","20:10",0.0,17.6,74.8,1006.4,327.0,1.3,2.5,293.6,0.00,13.1,20.0,"20:06:48",1
"18/10/16","20:20",0.0,17.5,75.5,1006.2,317.8,0.8,2.7,316.1,0.00,13.2,20.0,"20:12:48",1
"18/10/16","20:30",0.0,17.1,77.9,1006.4,292.4,1.0,2.8,336.5,0.00,13.3,19.9,"20:28:16",1
"18/10/16","20:40",0.0,17.3,77.2,1006.4,294.8,1.1,2.1,336.8,0.00,13.3,19.8,"20:39:20",1
"18/10/16","20:50",0.0,17.6,75.4,1006.2,300.1,1.2,2.5,319.5,0.00,13.2,19.7,"20:41:12",1
"18/10/16","21:00",0.0,17.7,75.8,1006.2,269.6,1.0,1.9,280.9,0.00,13.4,19.7,"20:51:28",1
"18/10/16","21:10",0.0,17.4,76.5,1006.2,294.8,0.8,1.9,314.1,0.00,13.3,19.8,"21:08:48",1
"18/10/16","21:20",0.0,16.8,80.5,1006.2,309.5,1.0,1.6,321.4,0.00,13.5,19.7,"21:10:24",1
"18/10/16","21:30",0.0,16.7,81.7,1005.7,327.7,1.1,2.0,335.4,0.00,13.6,19.4,"21:29:12",1
"18/10/16","21:40",0.0,16.3,83.6,1005.5,319.8,1.0,1.9,337.0,0.00,13.6,19.7,"21:30:24",1
"18/10/16","21:50",0.0,16.1,85.4,1005.7,306.3,1.1,1.7,334.8,0.00,13.7,19.6,"21:47:28",1
"18/10/16","22:00",0.0,16.1,85.3,1006.0,293.2,0.8,1.3,308.8,0.00,13.7,19.6,"21:50:16",1
"18/10/16","22:10",0.0,16.1,85.0,1006.4,284.9,0.8,1.1,315.7,0.00,13.6,19.6,"22:04:24",1
"18/10/16","22:20",0.0,16.3,84.7,1006.0,325.6,0.2,1.0,310.2,0.00,13.8,19.5,"22:10:08",1
"18/10/16","22:30",0.0,16.2,85.1,1006.2,336.9,0.6,1.4,336.6,0.00,13.7,19.6,"22:29:36",1
"18/10/16","22:40",0.0,16.2,85.4,1005.7,316.2,0.8,1.8,319.8,0.00,13.8,19.2,"22:31:20",1
"18/10/16","22:50",0.0,16.0,86.2,1005.7,284.4,1.0,1.4,294.5,0.00,13.7,19.3,"22:48:08",1
"18/10/16","23:00",0.0,16.1,86.3,1005.7,325.7,1.3,2.0,323.9,0.00,13.9,19.3,"22:59:28",1
"18/10/16","23:10",0.0,16.2,85.8,1006.0,335.4,1.6,2.5,336.3,0.00,13.9,19.4,"23:05:04",1
"18/10/16","23:20",0.0,16.5,84.5,1006.2,325.8,1.6,3.4,332.7,0.00,13.9,19.3,"23:11:52",1
"18/10/16","23:30",0.0,16.7,82.8,1006.2,332.1,1.5,2.8,318.1,0.00,13.8,19.2,"23:20:48",1
"18/10/16","23:40",0.0,16.8,82.3,1006.4,329.6,1.3,2.4,305.6,0.00,13.8,19.2,"23:30:16",1
"18/10/16","23:50",0.0,16.6,82.3,1006.2,342.1,1.3,2.4,341.9,0.00,13.6,19.0,"23:44:40",1
"18/10/16","24:00",0.0,16.5,82.9,1006.0,341.0,1.1,2.1,329.0,0.00,13.6,19.2,"23:59:28",1
